Theta_e
325 327 328 328 328 328 328 329 329 327 326 327 328 328 328 328 328 328 327 327 326 325 325 324 324 323 321 318 311 307 309 308 307 306 307 307 306 305 304 303 302 302 302 304 304 304 304 303 303 303 303 304 305 307 310 311 312 313 313 313 313 313 313 313 313 313 314 314 313 313 313 313 313 313
325 326 327 328 329 329 330 330 329 327 326 327 328 328 328 328 327 327 326 326 326 326 325 324 323 323 322 317 310 308 310 309 306 307 307 307 306 304 304 303 302 303 303 304 304 304 304 303 304 303 304 305 308 310 312 312 313 313 313 313 312 313 312 312 313 313 313 313 313 313 313 312 313 313
325 327 328 330 330 329 329 329 328 327 327 327 326 326 328 328 327 327 327 326 325 326 326 324 323 323 321 319 312 308 311 309 306 307 308 307 306 304 303 302 302 303 304 305 305 304 304 304 304 304 305 307 310 311 312 312 313 313 313 313 312 312 312 312 312 312 312 312 312 313 313 313 313 312
327 328 330 330 329 329 329 326 325 326 327 327 326 324 327 328 327 327 327 325 325 326 326 325 323 323 321 319 315 311 310 309 307 306 307 308 306 304 303 302 302 303 304 305 306 305 305 304 304 305 307 309 311 312 312 312 313 313 313 312 312 312 312 311 311 312 312 312 312 312 313 312 312 312
329 330 330 329 328 329 329 326 324 326 327 327 326 324 325 328 328 328 326 325 325 325 325 325 323 323 321 319 317 314 312 309 307 307 307 308 307 304 303 303 302 303 304 305 306 306 306 306 305 307 309 311 312 312 312 312 312 312 312 312 312 312 312 312 311 312 312 312 312 312 312 312 312 312
329 329 330 330 329 329 329 328 328 329 327 327 327 325 324 327 328 328 327 326 325 324 323 324 324 323 321 317 317 317 314 310 307 307 307 307 307 305 304 305 304 303 303 304 305 306 307 307 307 307 309 311 312 312 312 312 312 312 312 312 312 312 312 312 312 312 312 312 312 312 311 312 311 311
328 329 330 330 330 329 328 329 329 328 327 327 326 324 325 327 328 329 328 327 326 324 323 323 324 323 320 317 317 318 317 313 309 308 308 307 308 306 305 307 307 304 303 304 304 305 306 307 308 308 308 309 311 312 312 312 312 312 312 312 312 312 312 312 311 311 311 311 311 311 311 311 311 311
329 329 329 330 330 329 328 329 329 328 326 326 326 326 326 328 328 328 327 326 325 324 323 322 322 321 319 317 318 317 317 315 312 311 311 309 308 307 306 307 308 307 305 305 305 305 305 306 307 307 308 308 309 310 311 312 312 312 312 312 312 312 312 311 311 311 311 311 311 311 311 311 311 311
329 330 329 329 330 330 329 329 329 329 328 327 327 327 327 327 328 327 325 325 324 324 323 320 319 319 317 316 317 317 317 316 313 312 313 311 309 309 308 307 308 308 307 307 306 306 306 306 306 307 307 308 308 309 310 311 311 311 312 312 311 311 311 311 311 311 311 311 311 311 311 312 312 312
329 330 329 328 329 330 329 329 330 329 329 328 327 327 327 327 327 327 325 324 324 324 323 319 318 318 317 316 317 316 315 315 314 313 313 312 311 311 310 309 309 308 308 308 308 308 308 308 308 307 308 308 308 309 309 310 310 310 310 311 311 311 311 311 311 311 311 312 312 312 312 312 313 313
327 328 329 328 329 330 329 329 330 329 329 329 328 328 328 327 326 326 325 324 324 324 322 320 319 318 316 316 316 315 314 315 315 314 313 313 312 311 310 310 310 309 309 309 309 309 309 309 309 309 310 310 310 310 311 311 311 311 311 311 311 312 312 312 312 312 312 312 313 313 313 314 314 314
326 327 327 328 329 330 329 329 329 329 329 329 329 329 328 327 326 326 325 324 323 322 322 321 320 318 317 316 316 315 314 315 315 314 313 313 313 311 310 309 310 310 309 309 310 310 310 311 311 311 311 312 312 312 312 312 312 312 312 312 312 312 313 313 312 313 313 314 314 315 315 315 315 315
326 326 326 327 328 328 328 328 327 328 328 328 329 329 327 327 326 326 325 324 322 321 322 321 320 319 318 317 317 316 314 314 314 315 314 314 313 312 312 310 310 311 311 310 311 311 312 312 312 312 312 312 312 312 312 312 312 312 312 313 313 313 313 313 314 314 315 315 315 315 315 315 315 315
325 325 324 325 326 327 327 326 326 326 326 327 327 327 326 325 325 325 326 324 322 322 322 322 321 320 319 317 317 317 315 313 314 315 315 314 313 313 314 314 313 311 311 312 312 312 312 312 312 312 312 312 312 313 313 312 313 313 313 313 313 314 314 315 315 315 315 316 315 315 315 315 314 314
325 324 323 323 324 325 325 325 325 324 324 325 325 325 326 325 324 324 326 325 323 322 322 323 322 320 319 319 318 317 317 317 317 317 316 315 313 313 315 315 315 312 311 311 312 313 313 312 313 314 314 314 316 315 314 313 314 314 315 315 315 315 316 316 316 316 315 315 314 314 313 312 311 310
323 323 323 323 324 324 325 325 325 324 323 324 325 325 326 325 324 325 325 325 325 323 321 322 323 321 320 319 319 318 318 319 319 317 316 315 314 314 314 314 315 315 312 311 313 314 315 313 313 315 316 318 318 316 315 315 315 316 316 316 316 316 316 315 315 314 313 311 311 309 308 308 307 306
323 323 323 323 324 324 324 324 324 323 323 324 324 325 326 326 326 326 325 325 325 325 323 323 323 323 322 320 320 320 320 321 320 318 316 315 314 315 315 314 316 315 313 312 313 315 316 316 316 317 319 319 318 316 316 316 316 316 316 316 315 314 313 312 310 309 307 306 305 304 303 302 302 301
324 323 323 323 324 324 324 324 324 323 323 324 324 325 325 325 325 325 325 325 325 325 325 325 324 324 323 322 321 322 323 322 321 318 316 316 315 315 315 315 315 314 313 312 313 316 319 319 318 319 319 319 317 316 316 316 316 315 314 312 311 309 308 306 305 303 302 301 300 300 299 298 298 297
325 325 325 325 324 324 323 323 323 324 323 323 324 324 323 323 324 324 324 324 324 324 325 325 324 323 323 322 322 323 323 323 322 320 316 315 315 314 313 313 312 312 312 311 312 316 320 319 318 318 317 316 316 315 314 313 312 311 309 307 305 304 302 301 300 299 298 298 297 297 297 297 297 297
327 327 327 327 326 324 323 323 323 323 323 323 323 323 323 322 322 322 322 323 323 324 324 324 322 322 321 321 321 323 323 323 322 319 315 313 312 312 313 314 313 312 312 312 313 316 318 318 317 315 314 313 313 311 309 308 307 305 303 301 300 299 298 298 297 297 297 297 297 298 298 297 297 298
326 326 326 326 327 325 324 323 324 324 323 324 324 323 323 323 323 323 323 323 323 324 324 324 323 322 320 319 320 322 323 322 320 317 315 314 314 315 317 318 317 316 314 314 315 314 314 314 313 312 310 310 308 307 307 307 304 300 298 298 297 297 297 297 297 297 298 298 298 298 298 298 298 298
324 324 323 324 325 324 323 323 324 324 324 324 324 324 324 323 323 323 322 322 322 321 321 321 321 321 320 319 320 320 320 318 315 314 316 316 316 318 319 318 317 315 314 314 312 310 310 310 309 309 307 306 305 306 307 306 302 299 297 297 298 298 298 298 298 298 298 298 298 298 298 299 299 298
323 323 323 323 323 323 322 322 323 323 323 323 324 323 323 321 320 320 319 318 318 318 318 318 317 317 318 318 318 316 315 314 314 315 317 316 316 317 318 317 314 312 311 311 309 307 307 308 307 305 303 303 305 307 307 306 302 299 298 298 298 298 298 298 298 299 299 299 298 298 298 298 298 298
322 322 322 323 323 322 321 321 322 322 323 323 322 320 319 319 318 317 317 316 316 316 315 315 314 315 316 316 316 315 315 315 315 315 315 314 314 314 314 312 310 309 310 309 307 304 303 303 303 301 300 301 304 306 306 305 302 300 298 298 299 300 300 300 301 301 302 301 300 299 298 298 299 299
321 321 322 323 323 322 321 321 321 321 322 322 319 317 317 318 318 317 316 316 315 315 315 314 314 314 315 315 315 315 315 314 314 314 313 311 310 310 309 306 305 305 305 305 303 300 298 300 301 300 301 302 304 305 304 303 303 302 300 299 300 301 302 302 303 303 303 302 302 301 300 299 299 300
321 320 321 322 322 321 321 322 321 321 321 320 318 316 316 316 316 316 315 315 314 314 314 314 314 313 314 314 313 312 312 312 312 312 311 309 307 305 304 302 302 302 301 300 298 297 299 301 300 300 301 303 303 304 304 304 305 304 301 301 301 301 302 303 302 302 302 302 302 301 300 299 299 299
319 320 320 321 322 321 321 321 321 319 317 316 315 315 315 315 315 315 314 314 312 312 311 311 310 309 308 308 307 306 306 306 306 305 304 303 301 300 299 298 298 298 298 297 297 296 298 300 298 298 299 300 301 303 304 304 304 303 302 302 302 301 302 302 302 301 301 301 301 300 300 300 299 298
318 318 317 318 320 320 318 317 316 314 313 313 313 314 314 314 313 312 312 311 309 308 307 306 306 305 304 303 303 302 301 301 300 299 299 298 298 297 297 297 297 297 297 297 297 297 297 298 298 297 297 298 301 303 304 303 303 303 302 302 301 301 301 301 301 301 300 300 300 300 300 300 299 298
314 314 315 315 316 317 315 313 313 312 312 311 311 311 311 310 309 308 307 307 305 305 304 303 303 302 302 301 300 299 299 298 297 297 297 297 297 297 297 297 297 297 297 297 297 297 297 297 297 297 298 300 301 303 303 302 303 302 301 301 301 301 301 300 300 300 300 300 300 300 300 299 298 298
308 308 310 311 311 312 312 311 311 311 309 308 307 306 305 305 304 303 303 303 303 302 302 301 300 300 299 298 298 297 297 297 297 297 297 297 297 297 297 297 297 297 297 297 297 297 297 297 297 297 300 302 302 302 301 301 302 301 301 300 300 300 300 300 300 300 300 299 299 299 299 299 298 298
304 304 305 305 306 306 306 307 307 306 305 304 304 303 302 302 301 301 301 300 300 300 299 298 298 298 297 297 297 297 297 297 297 297 297 297 297 297 297 297 297 297 297 297 297 296 296 297 297 298 299 301 301 300 300 300 300 300 300 299 299 299 300 299 299 299 299 298 298 299 298 298 298 297
302 303 303 303 303 303 303 303 303 302 302 302 302 301 301 300 299 298 298 298 298 297 297 297 297 297 297 296 297 297 297 297 297 297 297 297 296 297 298 299 299 299 299 298 298 297 297 297 298 298 299 299 299 299 299 299 300 299 299 299 299 299 299 299 299 298 298 298 298 298 298 297 297 297
302 302 302 302 302 301 301 301 300 300 300 300 300 300 300 299 298 297 297 297 297 297 297 297 297 297 297 297 297 297 297 297 296 296 296 296 296 297 299 300 300 300 300 299 299 298 298 297 297 298 298 297 297 297 298 299 299 298 298 298 298 298 298 298 298 298 298 298 298 297 297 297 297 297
301 301 301 301 301 301 301 301 300 300 300 300 300 300 300 299 299 299 298 298 298 298 297 297 297 297 297 297 297 296 296 296 296 296 296 296 296 296 297 297 297 297 298 298 298 297 297 297 298 298 298 297 297 297 297 297 298 298 298 298 298 298 298 298 298 298 297 297 297 297 297 297 297 297
300 300 300 300 300 300 300 300 300 300 299 299 299 299 298 298 298 298 298 298 298 298 297 297 297 297 297 297 296 296 296 296 295 295 295 295 295 295 295 295 296 296 297 297 297 297 297 297 298 298 298 298 298 298 297 296 296 297 297 297 297 297 297 297 297 297 297 297 297 297 297 297 296 296
298 298 298 298 298 298 298 298 298 298 298 298 298 297 297 297 297 297 297 297 297 297 297 297 296 296 296 296 296 295 295 295 295 294 294 294 294 294 294 294 296 296 297 297 296 296 297 297 297 297 298 298 298 298 297 296 295 295 296 296 296 296 296 297 297 297 297 297 297 297 296 296 296 296
297 297 297 296 296 297 297 297 297 297 297 297 297 297 297 296 297 297 297 297 297 297 296 296 295 295 295 295 294 294 294 294 294 294 294 294 294 294 294 295 295 296 297 297 296 296 296 296 296 296 297 297 297 298 297 296 295 295 295 295 295 295 296 296 296 296 296 296 296 296 296 295 296 295
297 297 296 296 296 296 296 296 296 296 296 296 296 296 296 296 296 296 296 296 296 296 295 295 295 294 294 294 293 293 293 293 293 293 293 293 293 294 295 295 296 296 296 296 296 296 296 296 296 296 296 296 297 297 296 296 295 295 294 294 295 295 295 296 296 296 296 296 296 296 295 295 295 295
297 297 296 295 295 295 295 295 296 296 296 296 296 296 296 295 295 295 295 294 294 294 294 293 293 293 293 292 292 292 292 292 292 292 292 293 293 293 294 295 295 295 295 295 296 296 296 296 295 295 295 295 295 296 295 295 295 295 294 294 294 294 295 295 295 295 296 296 296 296 295 295 295 294
297 297 296 295 295 295 295 295 296 295 295 295 294 294 294 294 293 293 292 292 292 292 292 292 292 292 291 291 292 292 292 292 292 292 292 292 292 292 293 294 294 294 294 294 295 295 295 295 295 294 295 295 295 295 295 295 295 295 294 293 293 293 294 294 295 295 295 295 295 295 295 295 295 294
296 296 296 295 295 295 295 295 295 295 294 293 293 292 292 292 292 291 291 291 291 291 291 291 291 291 291 291 292 292 292 292 292 292 292 292 292 292 292 293 294 294 294 294 294 295 295 295 294 294 294 295 295 295 295 295 295 295 294 294 293 293 293 294 294 294 294 294 295 295 295 295 295 294
295 295 295 294 294 294 294 294 293 293 292 292 292 291 291 291 290 290 290 290 290 290 290 290 290 290 291 291 291 292 292 292 292 292 293 293 293 292 293 293 293 294 294 294 294 295 295 295 295 295 295 295 295 295 295 295 295 295 295 294 294 294 294 293 293 293 293 293 293 294 294 294 295 294
295 295 294 294 293 293 293 293 292 292 292 291 291 290 290 290 290 290 290 290 290 290 290 290 290 290 290 291 291 291 291 291 291 291 291 292 292 293 293 293 293 293 294 294 294 294 295 295 295 295 295 295 295 295 295 295 295 295 295 295 295 295 294 294 294 293 293 293 293 293 293 293 294 294
294 294 293 293 293 293 293 292 292 292 292 291 291 290 290 290 290 290 290 290 290 290 290 290 291 291 291 291 291 291 291 291 291 291 291 291 292 292 292 293 293 293 294 294 294 294 294 294 295 295 295 295 295 295 295 295 295 295 295 295 295 295 295 295 294 294 294 293 293 292 293 293 293 293
293 293 293 293 293 293 292 292 292 292 292 291 291 291 291 291 290 290 290 290 290 290 291 291 291 291 291 291 291 291 291 291 291 292 292 292 292 292 292 293 293 293 293 293 294 294 294 294 294 295 295 295 295 295 295 295 295 295 295 295 295 295 295 295 295 295 295 295 294 293 293 293 293 293
Wind_Speed
19 18 19 19 17 15 15 15 17 19 18 16 16 18 18 18 18 16 17 17 16 16 16 15 16 16 15 15 17 16 15 15 15 15 15 14 14 14 13 14 13 13 12 11 11 11 11 11 11 12 11 11 11 11 11 11 10 9 8 7 6 5 5 5 4 4 3 3 5 6 7 8 9 10
18 18 18 17 15 15 15 15 18 19 19 19 18 18 18 19 18 17 18 17 15 16 17 15 15 16 16 16 17 17 16 16 16 16 16 15 14 15 14 14 14 14 13 12 12 12 11 12 12 12 12 12 12 11 11 10 10 9 7 6 4 3 2 2 1 0 1 3 5 7 8 10 11 12
18 18 17 16 15 17 18 18 18 20 21 21 20 19 19 20 19 17 15 16 15 15 16 15 14 16 17 15 16 18 17 17 17 17 17 15 15 15 15 15 15 14 14 13 12 12 12 12 12 13 13 12 12 11 11 10 9 9 7 6 5 4 3 2 3 3 4 5 6 8 9 10 12 13
17 17 17 17 17 17 18 19 19 20 22 22 22 20 19 19 19 17 14 14 15 14 14 15 14 15 17 15 16 18 18 18 18 18 18 17 16 16 15 15 15 15 14 13 12 11 11 12 12 13 13 13 12 12 11 10 10 9 8 7 6 6 5 5 5 6 7 8 8 9 10 11 12 14
17 16 16 18 17 16 18 18 18 20 22 21 21 20 19 17 17 17 15 14 14 13 13 14 14 15 16 15 15 17 18 18 18 19 19 18 17 16 16 16 16 15 14 13 12 11 10 11 11 12 13 12 12 12 11 11 10 9 9 9 8 8 8 8 8 9 9 10 11 12 13 14 15 16
17 17 17 17 17 17 18 17 16 18 21 21 21 21 19 17 16 17 17 15 12 12 13 14 15 16 16 15 15 16 17 18 18 19 20 18 17 17 16 15 16 15 14 13 12 11 10 10 11 12 12 12 12 12 12 11 11 10 10 10 10 10 11 11 11 12 13 14 15 16 17 18 19 20
17 17 18 17 17 19 19 18 17 18 20 21 20 20 19 18 17 17 17 15 12 11 12 14 16 16 17 16 15 16 16 17 18 18 19 19 18 18 18 16 15 15 15 14 13 13 12 11 11 12 12 13 13 12 12 12 12 12 12 12 13 13 14 14 15 16 18 19 20 21 22 22 23 24
16 17 18 18 18 19 19 18 18 18 19 19 19 19 19 19 20 20 19 18 14 11 11 14 16 16 17 17 15 15 16 17 18 17 17 18 18 17 18 16 15 15 15 14 14 14 13 13 12 12 12 13 13 13 13 13 13 14 14 14 15 16 17 18 19 21 22 23 24 24 25 26 27 27
16 16 18 19 18 19 19 18 17 17 18 18 18 19 18 18 20 22 23 21 16 12 11 14 15 14 16 17 15 15 17 17 17 16 15 16 16 16 16 16 16 16 15 15 15 14 15 14 14 14 13 13 13 14 14 15 15 15 16 17 18 19 20 21 23 24 25 26 27 28 28 29 30 30
16 16 17 18 18 19 18 17 17 18 19 19 19 19 19 19 19 22 25 23 16 13 12 13 15 14 15 16 15 16 17 16 16 16 16 16 15 16 17 17 17 17 16 16 16 15 15 14 14 14 14 14 14 14 15 15 16 17 18 19 20 21 23 24 25 27 28 29 29 30 31 31 32 32
17 16 17 17 17 18 18 17 18 18 20 20 20 21 21 21 20 22 24 23 17 15 15 14 15 16 15 16 15 16 17 16 15 16 16 16 16 18 19 19 18 18 17 16 16 15 15 14 14 13 13 13 13 13 14 14 15 17 18 19 21 23 24 26 27 28 29 30 30 31 31 31 31 31
16 17 18 18 17 17 17 18 18 18 19 21 21 23 23 22 21 20 22 24 19 16 17 16 15 16 16 16 16 15 17 18 17 16 16 16 16 17 19 20 19 18 18 17 15 14 14 13 12 12 12 13 13 14 15 16 17 19 20 22 24 25 26 27 28 28 29 29 29 30 30 30 30 31
17 17 18 19 18 18 19 19 19 19 21 21 22 24 26 24 20 16 18 25 24 20 18 17 16 16 16 17 18 18 19 20 18 16 16 15 14 14 15 17 18 18 17 15 14 13 14 13 12 13 13 14 16 17 17 19 20 22 23 24 25 26 26 26 27 27 28 29 29 30 30 31 32 32
18 18 18 18 18 19 20 20 20 20 21 22 21 24 26 25 20 15 15 22 26 25 22 19 16 17 17 17 18 20 21 21 18 17 17 17 15 14 14 13 16 18 16 14 14 13 14 15 14 13 13 15 18 18 19 21 22 22 23 23 24 24 25 26 27 28 29 30 31 32 33 34 35 35
17 17 17 18 18 19 20 20 20 20 21 22 21 22 24 24 22 18 16 18 21 23 26 24 20 20 20 18 18 20 20 19 19 19 19 19 17 16 15 13 14 17 18 17 15 12 14 17 15 12 11 11 13 15 18 21 21 20 22 22 22 24 25 26 28 29 31 32 33 34 35 35 36 36
16 16 17 17 17 19 20 20 20 21 21 21 22 23 23 23 23 21 19 18 17 19 25 27 24 22 23 21 19 20 19 18 20 20 19 19 18 17 18 16 14 17 19 18 16 12 15 20 16 12 10 10 13 17 19 19 19 19 21 22 23 25 27 29 30 31 32 33 34 35 35 35 36 36
15 16 16 16 17 18 18 19 20 20 20 20 21 22 22 23 24 23 22 21 19 19 22 24 23 20 21 23 21 20 19 18 19 20 20 21 20 18 17 15 16 19 20 18 14 12 13 17 14 9 8 10 13 17 17 18 20 22 24 25 26 28 29 30 31 32 32 33 33 33 33 33 34 34
16 16 16 16 17 18 18 18 20 20 20 20 20 21 21 22 23 23 23 22 22 21 22 24 25 22 23 25 22 19 20 19 17 17 19 19 19 18 18 19 21 22 22 19 15 11 11 14 11 7 7 10 13 16 20 22 24 25 26 27 28 29 30 30 30 30 30 30 30 31 31 32 32 32
15 14 14 15 17 18 17 18 19 20 19 19 20 22 22 23 23 22 22 22 22 23 24 26 27 27 29 29 24 21 22 20 17 17 18 19 21 21 21 23 24 24 23 21 18 12 9 11 11 8 9 14 16 18 23 26 26 26 26 27 27 28 28 27 27 27 27 28 29 29 29 30 31 31
14 14 13 14 15 16 17 17 17 17 17 17 19 21 21 21 21 21 20 21 21 22 23 23 21 24 29 32 29 26 25 22 20 19 20 23 24 21 18 17 17 19 21 20 18 14 11 14 17 13 13 18 19 16 18 22 25 25 25 25 24 24 24 24 25 25 26 26 27 27 28 28 29 28
16 16 16 15 15 16 17 16 15 16 15 15 16 17 17 18 18 19 18 19 20 21 22 21 18 19 24 30 33 31 26 23 22 18 16 18 17 14 12 11 10 11 13 14 16 14 12 16 19 16 14 18 20 15 11 15 21 22 21 22 22 21 22 23 24 24 24 25 26 26 26 26 25 25
19 18 18 18 18 18 17 15 14 14 14 14 14 14 15 15 15 16 15 15 16 17 17 17 18 18 20 25 29 27 23 20 19 17 16 16 15 14 13 12 9 8 11 12 12 10 8 10 13 12 10 12 13 10 9 12 17 18 19 20 21 21 21 21 22 22 22 23 23 22 23 23 22 23
22 20 19 20 21 19 17 16 15 15 14 14 13 12 12 12 11 11 10 10 10 11 10 10 12 14 17 19 19 17 15 14 15 18 17 16 16 17 16 13 9 9 12 13 10 7 8 10 12 14 12 8 6 7 8 11 14 16 18 19 19 20 21 20 21 21 20 21 21 20 21 22 22 22
25 23 23 25 24 21 19 18 17 16 15 13 11 10 11 11 10 11 10 10 9 8 8 8 8 10 12 14 14 13 12 13 13 14 13 12 12 14 14 12 9 9 12 13 10 9 12 12 12 14 13 8 6 6 7 10 13 15 17 17 16 17 18 18 17 17 19 21 22 20 19 19 20 19
26 25 26 27 26 23 21 20 19 17 17 15 14 15 13 10 10 11 11 11 11 11 11 11 11 12 13 14 15 15 14 13 12 11 11 10 11 11 10 9 9 12 14 14 12 12 13 11 11 11 9 7 7 7 8 10 10 12 14 15 14 13 14 13 12 12 14 18 21 21 19 18 17 17
24 25 26 25 25 25 24 22 20 19 19 18 18 17 14 11 11 13 14 15 14 13 13 12 12 13 13 13 13 13 12 12 11 11 10 9 9 9 9 9 11 13 13 12 12 11 9 8 9 7 5 5 6 6 7 7 6 8 11 12 11 11 11 10 10 10 11 12 15 19 20 18 16 15
20 22 22 22 24 27 26 23 22 20 19 19 17 15 14 14 15 17 18 19 17 16 15 15 14 14 13 12 11 11 10 10 10 10 10 9 9 9 10 11 12 13 11 10 10 9 7 8 8 6 5 6 5 4 5 4 4 8 9 8 8 9 8 9 10 11 11 11 12 16 18 17 17 16
16 16 15 17 21 23 23 21 21 21 19 18 17 16 16 17 17 18 18 18 17 16 15 14 14 13 13 12 11 10 10 10 10 10 9 9 9 9 9 9 10 10 9 8 7 6 6 6 6 5 5 4 2 2 4 4 5 6 7 7 8 8 7 9 10 10 11 11 11 14 14 12 14 16
11 12 13 15 18 19 18 18 19 19 18 17 17 18 19 19 18 17 17 16 15 14 12 11 11 11 11 10 10 10 10 9 9 9 9 8 8 8 8 8 7 7 6 6 5 5 4 4 5 4 3 3 2 2 4 4 5 6 6 8 9 7 7 9 10 10 10 10 10 12 12 11 12 12
8 9 11 13 15 16 17 18 18 19 19 18 19 19 18 18 17 16 15 15 14 13 11 10 9 9 9 9 9 9 9 9 8 8 7 7 7 6 6 5 5 5 5 4 4 4 3 4 4 2 1 1 2 3 4 4 5 6 7 8 8 8 8 9 9 9 9 9 9 9 10 11 12 11
12 13 14 14 14 16 17 18 19 20 20 20 19 18 17 16 15 13 12 12 12 12 11 10 9 8 9 8 9 9 8 8 7 7 7 7 6 6 5 3 2 1 2 2 2 3 2 3 3 1 1 1 2 2 3 4 5 6 7 7 7 7 8 7 8 8 8 7 7 6 7 9 9 9
16 16 18 19 19 19 20 21 20 20 19 19 18 17 16 15 15 14 12 10 10 11 11 11 10 10 9 8 8 7 6 6 6 7 7 7 7 6 6 4 3 2 2 2 2 3 2 2 1 1 1 0 1 2 3 4 5 5 6 6 6 6 6 6 6 7 7 6 6 6 6 7 7 6
15 16 17 19 20 20 20 20 19 17 16 15 16 15 15 15 15 16 15 14 13 12 12 11 10 9 8 8 7 6 6 6 6 7 8 8 8 8 8 7 5 4 3 2 1 2 2 2 1 1 2 3 2 2 2 2 4 5 5 5 5 5 5 5 5 6 7 6 6 6 6 7 8 7
11 12 14 15 16 15 15 15 13 11 10 10 11 12 13 13 13 13 13 13 12 11 11 10 9 8 7 7 7 7 7 7 7 7 8 8 9 9 9 8 7 6 5 3 1 0 2 3 1 4 8 9 5 4 4 3 3 4 4 4 4 4 4 5 5 6 7 6 6 6 6 6 8 8
9 10 11 11 11 10 10 10 10 9 9 9 10 12 13 12 12 11 10 10 10 9 9 8 8 7 6 6 6 6 6 7 7 7 7 7 7 7 7 7 6 5 4 3 2 1 3 4 2 3 7 7 5 6 7 6 5 4 4 4 4 4 4 5 5 6 6 6 5 5 5 6 7 8
14 13 12 12 11 10 10 10 10 11 11 12 12 13 13 13 12 11 10 10 9 9 8 8 8 8 8 8 8 8 8 7 7 7 7 7 6 6 6 7 7 6 4 3 3 3 3 3 2 2 4 5 5 5 4 8 10 7 4 3 3 4 5 5 5 6 6 5 5 5 6 6 5 6
15 14 13 12 12 12 12 12 12 13 13 13 13 12 11 11 10 10 9 8 8 8 8 8 8 9 9 9 9 9 8 8 8 8 7 7 7 7 7 8 8 6 4 3 3 3 2 2 3 2 2 3 4 2 2 8 12 8 4 3 3 4 5 5 5 5 5 5 5 5 5 5 5 6
14 13 12 11 11 11 11 12 12 11 11 10 10 10 9 9 9 9 9 9 9 9 9 9 9 9 10 10 10 10 10 9 8 8 8 9 9 9 8 8 7 6 4 4 3 3 3 3 3 4 3 2 3 2 3 6 8 6 4 4 3 4 5 5 5 5 5 4 4 4 5 7 8 8
11 11 10 9 8 8 8 8 8 9 9 9 8 8 9 9 10 10 10 10 10 10 11 11 11 11 11 11 11 11 11 11 10 10 9 9 9 9 9 8 7 6 5 5 4 3 3 4 3 3 3 3 2 2 2 3 3 3 5 6 6 5 5 5 5 5 5 4 4 4 5 9 11 12
9 10 9 7 5 5 5 5 6 8 9 10 10 10 11 11 12 12 12 11 11 11 12 12 12 12 13 13 12 11 10 11 11 10 10 9 9 9 9 8 6 5 5 6 4 3 3 3 2 1 1 1 3 5 6 5 3 3 6 8 8 7 6 6 5 4 4 5 6 5 5 6 9 12
6 7 7 6 4 4 4 6 8 10 11 11 12 12 12 12 12 12 12 13 13 13 12 12 13 13 13 13 13 11 10 10 9 9 8 7 7 8 9 8 6 5 5 5 4 3 3 3 3 3 3 3 4 7 8 6 5 4 5 7 8 9 9 9 8 6 6 5 5 5 5 4 5 7
4 5 4 4 4 5 7 8 10 12 13 12 12 13 12 12 12 12 12 12 13 13 13 12 12 12 12 12 11 10 9 9 8 8 8 6 5 6 7 6 5 5 5 5 4 4 3 3 5 6 5 3 3 4 5 4 4 5 4 5 7 8 9 9 9 9 8 8 7 6 5 5 4 5
4 4 3 4 5 7 8 9 9 10 10 10 11 12 12 11 11 12 11 12 12 12 12 11 11 11 11 11 10 8 8 7 7 7 7 7 5 5 5 5 5 5 4 4 4 5 4 4 5 5 4 3 3 3 2 2 3 4 4 3 4 6 7 7 8 7 7 7 7 6 5 5 5 5
3 3 3 5 7 8 8 8 8 7 7 8 10 10 10 10 10 10 10 10 10 10 10 10 10 10 9 8 7 7 7 7 7 6 6 5 5 4 4 4 5 4 4 4 5 5 5 5 5 5 4 4 4 3 2 3 3 3 3 3 3 3 4 5 6 6 5 5 5 5 5 5 6 7
3 4 5 7 8 8 8 8 8 7 7 7 8 8 8 8 9 9 9 9 10 9 9 8 7 7 7 6 6 6 7 7 6 5 5 5 4 4 4 4 4 4 4 4 5 5 5 5 5 5 4 4 4 3 3 3 4 3 3 3 3 4 4 4 6 6 4 3 4 5 5 5 7 7
Wind_Direction
239 239 240 238 234 232 225 222 226 224 215 210 208 204 203 200 192 189 194 197 194 191 188 189 192 194 198 202 204 201 197 199 200 195 192 192 190 189 190 190 188 186 185 185 183 179 179 180 175 168 167 167 162 156 154 155 155 154 146 135 126 115 108 104 98 88 69 42 21 12 6 4 2 0
240 241 244 241 233 228 225 225 228 225 216 211 207 203 206 208 201 197 198 195 190 189 190 192 193 191 195 206 208 199 195 201 202 196 195 196 193 190 190 191 189 187 189 190 185 180 180 181 178 173 172 172 169 164 163 165 166 166 164 159 157 151 146 138 116 46 337 334 336 341 343 344 344 343
238 238 240 238 233 229 229 228 229 228 221 215 211 208 209 211 209 207 201 192 189 191 192 193 192 190 192 201 205 198 197 204 201 197 198 198 196 192 190 191 191 190 192 192 189 183 182 184 181 177 179 180 178 176 176 176 178 181 184 189 198 209 228 259 287 300 307 312 317 324 329 332 333 333
236 233 234 235 233 230 233 234 233 230 223 215 212 213 214 213 215 219 214 195 185 185 191 192 190 190 190 193 199 198 200 205 202 199 202 201 197 195 194 194 193 194 195 194 191 189 187 190 188 186 188 190 190 189 188 189 191 197 206 216 227 241 257 273 286 295 300 304 308 312 315 318 320 321
234 229 231 236 234 228 228 229 227 226 223 216 212 216 216 214 215 219 215 199 183 180 188 191 189 189 189 190 194 196 201 207 204 201 206 205 201 198 198 198 198 198 198 197 196 198 197 196 196 196 197 199 201 201 201 203 207 214 224 235 246 257 267 276 283 288 293 296 300 303 306 308 309 310
232 228 229 233 232 229 227 222 216 220 222 217 214 215 214 214 217 215 211 208 199 191 191 189 188 191 192 192 192 195 202 208 206 205 208 208 204 203 201 202 204 202 200 202 203 204 207 205 206 207 208 210 212 213 215 217 222 230 239 249 257 265 272 278 282 286 289 293 296 299 301 301 302 302
230 228 227 227 228 230 229 221 216 219 222 220 218 214 212 215 215 212 212 212 203 195 194 190 189 193 195 194 195 196 201 206 206 206 210 211 209 207 204 204 209 208 204 206 208 209 213 213 213 215 217 220 222 224 228 231 236 243 250 257 264 270 276 280 284 288 291 293 295 296 296 297 297 297
228 229 228 225 226 229 229 222 218 220 220 220 219 212 211 215 213 208 207 201 193 192 194 191 192 196 196 194 195 197 199 204 205 203 208 212 211 211 209 206 211 212 208 210 213 215 217 218 219 223 224 228 232 234 238 242 247 253 259 264 270 274 279 283 287 289 291 291 291 291 291 292 292 293
224 227 231 229 225 226 228 222 217 217 218 219 219 215 215 218 217 214 207 197 193 199 196 190 191 192 194 196 197 197 197 201 204 202 206 211 211 213 214 212 216 215 211 214 217 218 221 223 225 228 230 234 238 242 246 250 256 261 266 270 274 278 281 284 285 285 285 285 286 287 288 289 290 291
222 223 230 232 227 224 225 221 215 214 215 218 219 220 221 217 216 218 211 200 199 207 200 190 190 189 189 192 196 199 198 199 202 202 205 208 209 212 215 216 221 221 216 218 221 221 223 226 229 232 236 238 241 245 251 256 261 265 269 272 275 277 278 278 279 280 281 283 285 286 287 288 289 290
223 222 225 228 226 224 225 222 217 215 215 217 219 221 222 217 216 220 212 201 201 207 204 195 193 194 193 192 195 200 200 201 204 203 205 208 209 215 220 219 223 228 226 225 225 224 225 229 232 233 235 239 243 248 254 258 262 265 268 270 271 272 274 275 277 280 282 284 286 287 288 289 289 290
223 221 223 223 223 223 224 223 219 217 217 219 221 224 223 218 219 223 214 204 202 205 207 204 198 196 197 197 198 198 199 203 207 206 206 209 212 217 224 225 225 230 232 231 230 229 228 229 231 235 239 243 246 250 255 259 262 264 266 267 269 271 274 276 279 281 283 285 287 288 289 289 289 289
220 221 224 225 224 223 224 224 222 220 220 221 224 228 229 225 224 224 215 208 204 203 204 203 202 202 201 201 200 200 204 206 208 209 211 213 214 215 221 226 226 226 229 231 230 229 232 234 238 246 250 252 253 254 258 260 261 264 266 269 272 274 276 278 279 280 282 283 285 286 286 287 288 288
222 224 227 231 231 229 227 227 226 226 227 227 229 233 235 232 227 223 220 214 211 210 208 204 204 205 205 206 205 207 212 213 212 214 215 216 215 213 214 217 222 224 222 220 221 224 235 242 245 248 251 256 261 262 260 261 263 267 270 272 273 275 276 277 278 280 282 283 285 286 288 289 290 290
225 226 229 232 234 233 232 233 232 231 232 230 228 230 233 231 225 224 226 223 219 218 217 217 215 209 209 213 213 212 215 217 217 216 217 219 217 214 214 212 218 224 220 218 221 220 231 240 241 241 241 242 250 255 259 265 270 273 274 274 275 277 278 279 281 283 285 287 289 290 291 292 292 292
229 228 228 229 232 234 235 235 234 233 233 231 227 227 228 226 224 224 225 226 224 218 217 219 220 217 216 217 217 218 217 218 223 222 218 219 216 214 219 218 219 226 224 223 225 221 233 244 244 238 233 227 237 251 261 269 274 275 277 279 280 281 284 285 287 289 290 291 292 292 292 293 293 293
233 231 228 226 228 232 232 232 232 231 232 230 227 227 227 226 227 228 229 232 233 225 217 217 217 217 219 220 219 220 217 218 228 227 220 221 219 216 221 220 220 229 230 226 226 224 236 249 246 233 231 233 245 260 270 274 277 279 281 284 285 287 288 289 290 291 292 292 293 293 293 293 294 294
235 235 231 225 226 230 228 225 226 229 232 230 226 225 227 228 229 232 233 236 237 232 223 218 216 215 219 220 216 212 214 220 230 229 221 220 217 214 217 218 222 232 235 233 233 229 233 245 243 221 221 238 256 278 285 282 282 284 284 286 288 289 289 290 291 292 293 293 294 295 295 295 295 295
230 229 226 224 226 231 229 224 224 228 231 229 226 227 229 231 233 235 237 239 241 239 232 226 224 225 224 221 215 217 226 233 238 233 222 216 218 220 223 226 230 236 240 241 240 229 218 234 236 225 242 257 265 278 284 284 285 286 287 289 289 289 290 292 293 294 295 295 296 296 297 297 297 296
219 215 214 215 220 227 230 226 224 227 229 229 229 230 230 234 237 239 242 244 246 247 244 241 239 236 231 226 225 232 239 240 242 242 232 224 223 222 220 223 230 237 241 242 238 226 216 232 244 251 266 273 274 276 279 283 286 288 290 291 290 290 293 294 294 296 296 297 297 298 297 297 297 296
216 215 213 209 212 222 228 224 219 222 226 227 229 231 233 237 241 244 245 246 247 249 250 249 246 239 232 229 229 234 240 241 240 237 228 222 218 213 207 199 202 225 235 234 235 236 235 249 260 264 265 272 278 279 272 274 282 288 291 291 292 294 296 296 297 298 298 298 299 298 298 298 299 300
227 225 221 215 216 221 221 214 212 215 220 226 231 233 234 238 241 241 241 242 245 247 245 243 238 233 229 228 229 232 238 239 228 209 201 201 195 189 189 182 184 223 241 241 249 254 249 258 271 272 266 272 278 271 255 264 282 294 297 297 299 301 300 300 298 296 298 300 302 303 303 304 306 307
231 229 223 219 220 220 212 204 205 208 211 219 229 228 222 223 223 221 219 221 228 232 227 220 218 217 219 224 230 233 233 223 206 194 195 201 199 195 194 196 211 243 252 254 259 250 238 248 260 266 271 277 267 256 262 279 292 300 300 301 305 305 304 304 302 303 308 310 308 309 309 310 312 314
231 228 223 219 217 213 207 203 204 206 205 204 206 207 210 214 212 203 198 196 194 192 184 177 174 180 191 200 206 208 205 199 193 192 195 200 207 210 212 212 214 227 245 257 259 244 242 248 253 261 268 270 260 261 272 285 296 301 302 307 312 311 311 314 316 321 324 319 317 316 315 315 315 316
229 228 225 221 215 208 205 204 202 204 203 195 190 194 202 211 212 204 196 186 176 174 174 172 170 170 173 178 181 185 191 193 196 201 202 202 207 215 222 216 202 213 236 249 248 245 246 245 245 255 264 265 263 268 278 289 298 301 305 313 317 317 320 325 328 331 327 324 324 320 316 314 309 308
224 226 225 222 214 207 204 203 202 203 202 197 194 196 199 204 203 195 187 178 173 176 181 181 178 175 176 178 181 184 190 194 202 211 218 221 218 220 226 222 214 223 235 238 237 239 234 232 243 249 251 261 265 272 286 296 296 297 307 315 315 318 326 328 327 327 324 324 321 314 313 318 314 306
227 225 221 215 210 206 203 199 198 196 194 193 197 202 203 203 198 190 182 176 172 171 173 172 169 168 170 174 179 183 187 193 202 209 215 222 220 215 216 217 219 228 236 237 239 236 221 228 248 249 242 258 274 285 292 292 287 300 315 320 317 323 330 324 321 322 322 324 321 317 320 327 326 320
232 224 213 203 203 204 202 194 189 188 189 194 199 200 197 193 189 185 181 175 170 168 168 169 171 172 175 179 183 187 190 192 196 199 203 209 212 214 218 219 221 228 234 233 236 235 225 234 256 265 265 271 282 291 296 301 308 316 326 327 325 329 329 322 322 323 322 325 326 325 325 325 322 323
214 205 196 191 192 195 197 193 187 186 190 191 186 182 180 178 174 173 172 169 168 170 172 175 178 179 181 185 186 187 189 188 188 192 196 202 208 213 217 220 219 223 229 229 231 235 235 240 256 278 305 313 301 293 304 312 317 322 328 330 331 333 329 325 325 325 326 329 332 328 319 308 308 311
163 160 165 173 175 176 180 183 182 177 173 169 164 161 161 162 159 158 160 162 164 168 171 176 180 180 182 184 181 180 182 183 184 188 190 193 197 197 198 206 211 212 217 221 224 230 240 253 259 251 75 337 297 302 315 315 313 316 321 325 328 329 328 327 328 331 333 335 337 327 307 299 304 309
125 126 132 139 145 150 155 159 161 160 158 157 155 151 148 148 148 146 149 154 157 157 157 161 165 167 170 173 175 177 180 180 181 181 177 176 175 169 166 170 180 220 251 244 241 245 255 274 286 283 128 218 273 291 306 308 307 304 307 318 328 329 328 331 337 341 343 345 345 332 313 311 312 306
129 131 132 133 134 137 138 138 139 141 144 148 149 146 145 143 140 137 134 135 139 142 143 145 151 156 161 166 170 172 172 171 171 168 164 161 154 143 133 120 98 56 19 6 340 317 303 290 299 18 87 169 281 319 321 306 300 300 306 321 333 333 333 341 346 344 347 355 357 348 341 344 344 327
143 145 144 142 140 139 137 135 132 132 136 142 145 147 148 145 141 137 132 128 126 126 128 133 139 144 148 150 150 149 151 159 164 162 158 155 149 140 134 133 135 135 121 88 8 336 346 347 274 291 340 336 327 359 7 306 295 310 321 330 336 337 337 343 346 342 345 354 356 353 352 352 360 5
145 146 147 147 146 145 144 143 143 141 141 145 147 148 149 149 147 146 143 139 136 131 130 130 128 123 122 125 130 140 151 157 160 158 157 156 154 152 153 157 163 161 148 129 128 9 37 36 351 308 328 338 340 345 353 338 315 323 327 330 338 338 331 336 339 335 339 347 350 353 354 349 357 13
112 118 125 129 130 134 140 143 146 146 145 142 138 135 133 132 132 131 131 131 131 130 130 129 125 120 119 124 134 146 154 156 152 148 149 151 152 154 156 155 149 139 126 106 80 64 49 43 29 302 313 319 301 295 317 330 331 334 331 328 330 324 320 329 331 327 333 345 348 352 359 355 355 5
81 84 91 96 98 103 111 116 119 122 124 124 121 119 118 117 115 114 113 114 116 118 121 125 129 133 138 143 149 152 150 146 141 139 141 141 136 129 124 119 113 105 98 86 68 59 47 32 20 312 289 287 267 251 292 325 325 326 330 324 318 318 321 326 326 326 336 353 358 1 7 4 353 353
66 67 71 78 84 90 96 100 102 104 106 107 107 107 109 110 112 113 114 115 117 121 125 128 134 139 141 142 141 138 136 133 132 131 127 119 110 102 93 91 95 94 86 76 62 51 49 36 17 357 314 300 292 257 306 332 330 331 341 339 326 330 337 339 343 344 348 359 10 15 17 15 9 6
61 60 61 67 74 81 87 92 94 97 100 104 107 109 112 116 120 123 125 126 128 131 134 139 141 141 141 138 133 129 125 123 119 117 115 112 109 106 97 86 86 89 84 77 65 45 35 29 14 5 2 354 341 325 328 337 339 345 7 18 13 2 357 0 5 3 359 2 8 10 14 19 19 18
56 57 59 64 69 73 80 88 95 103 110 115 118 122 126 127 126 125 125 127 131 134 137 140 139 137 134 132 130 129 128 126 122 118 117 116 114 111 102 90 83 84 80 71 65 45 20 5 357 356 357 356 355 347 343 346 345 351 13 29 32 21 12 18 20 12 6 9 9 2 6 14 15 14
49 49 53 63 73 74 80 98 113 118 120 123 125 127 127 126 125 125 125 127 130 133 135 135 133 132 131 127 122 119 120 122 123 120 117 116 118 117 106 89 74 74 71 59 48 35 17 353 326 330 7 45 58 49 40 39 41 19 15 28 39 38 31 30 32 24 11 8 8 7 10 14 15 14
45 40 43 59 85 106 116 124 128 127 126 127 127 126 126 127 128 128 130 131 131 129 130 129 126 125 127 123 116 113 113 112 113 111 105 101 108 109 99 85 71 66 59 47 35 30 19 345 338 11 53 76 55 42 39 40 43 33 17 20 32 38 40 40 38 39 37 30 24 23 23 24 24 25
49 40 43 67 99 119 126 127 129 129 128 128 127 126 127 127 126 123 123 126 127 125 123 122 119 118 119 117 111 110 112 110 110 112 108 99 91 86 79 75 71 65 53 40 36 40 30 1 4 24 42 43 26 36 47 47 39 34 26 16 12 18 30 41 44 46 47 45 40 38 32 25 25 31
49 44 62 98 114 120 122 124 127 129 128 127 126 127 126 123 120 119 118 118 119 119 117 116 116 114 111 108 105 105 108 105 103 104 101 95 87 79 72 69 68 66 60 52 51 50 45 37 37 43 48 43 41 54 61 46 34 28 25 27 16 3 6 20 31 37 41 42 39 37 31 21 14 12
44 56 95 115 120 124 125 124 125 126 126 125 122 122 122 121 121 123 122 119 118 118 116 114 112 106 99 94 94 96 96 93 88 83 77 73 73 74 73 73 70 67 68 70 62 50 45 47 51 54 54 52 56 66 55 34 33 19 5 20 33 11 353 351 355 358 10 28 33 29 19 10 5 356
59 90 117 123 123 125 126 127 129 129 128 127 123 118 118 121 121 122 124 124 121 117 113 110 107 102 99 100 102 97 86 78 76 75 66 60 62 70 77 84 85 73 66 68 66 56 51 50 48 49 52 49 48 51 42 30 26 18 10 20 26 17 11 0 345 338 333 340 355 358 353 352 356 355